Data supplied by UK-AIR on 29/3/2022
All Data GMT hour ending 
Status: R =Ratified P=Provisional,P*=As supplied
,,Inverness,,,,,,,,,,,,,,,,,,,,,,,
Date,time,"PM<sub>10</sub> particulate matter (Hourly measured)",status,unit,"Nitric oxide",status,unit,"Nitrogen dioxide",status,unit,"Nitrogen oxides as nitrogen dioxide",status,unit,"PM<sub>2.5</sub> particulate matter (Hourly measured)",status,unit
 
01-01-2021,01:00,7.250,R,ugm-3 (FIDAS),1.86838,R,ugm-3,4.42459,R,ugm-3,7.28940,R,ugm-3,4.835,R,ugm-3 (Ref.eq)
01-01-2021,02:00,3.975,R,ugm-3 (FIDAS),2.29544,R,ugm-3,3.68787,R,ugm-3,7.20750,R,ugm-3,1.958,R,ugm-3 (Ref.eq)
01-01-2021,03:00,3.050,R,ugm-3 (FIDAS),1.08099,R,ugm-3,1.65959,R,ugm-3,3.31709,R,ugm-3,1.675,R,ugm-3 (Ref.eq)
01-01-2021,04:00,3.425,R,ugm-3 (FIDAS),1.06765,R,ugm-3,0.57435,R,ugm-3,2.21139,R,ugm-3,1.580,R,ugm-3 (Ref.eq)
01-01-2021,05:00,2.925,R,ugm-3 (FIDAS),1.12103,R,ugm-3,0.86107,R,ugm-3,2.57996,R,ugm-3,1.321,R,ugm-3 (Ref.eq)
01-01-2021,06:00,3.575,R,ugm-3 (FIDAS),2.60239,R,ugm-3,12.59516,R,ugm-3,16.58544,R,ugm-3,2.123,R,ugm-3 (Ref.eq)
01-01-2021,07:00,5.650,R,ugm-3 (FIDAS),5.72526,R,ugm-3,26.60365,R,ugm-3,35.38226,R,ugm-3,3.538,R,ugm-3 (Ref.eq)
01-01-2021,08:00,4.175,R,ugm-3 (FIDAS),7.80718,R,ugm-3,21.69146,R,ugm-3,33.66229,R,ugm-3,2.288,R,ugm-3 (Ref.eq)
01-01-2021,09:00,4.325,R,ugm-3 (FIDAS),8.28762,R,ugm-3,28.01896,R,ugm-3,40.72646,R,ugm-3,2.146,R,ugm-3 (Ref.eq)
01-01-2021,10:00,9.325,R,ugm-3 (FIDAS),22.58075,R,ugm-3,46.27673,R,ugm-3,80.90007,R,ugm-3,6.439,R,ugm-3 (Ref.eq)
01-01-2021,11:00,8.350,R,ugm-3 (FIDAS),6.60607,R,ugm-3,17.26751,R,ugm-3,27.39668,R,ugm-3,5.708,R,ugm-3 (Ref.eq)
01-01-2021,12:00,2.875,R,ugm-3 (FIDAS),5.28486,R,ugm-3,7.43783,R,ugm-3,15.54117,R,ugm-3,1.439,R,ugm-3 (Ref.eq)
01-01-2021,13:00,3.900,R,ugm-3 (FIDAS),8.32765,R,ugm-3,10.65548,R,ugm-3,23.42437,R,ugm-3,1.840,R,ugm-3 (Ref.eq)
01-01-2021,14:00,3.850,R,ugm-3 (FIDAS),6.48596,R,ugm-3,9.46610,R,ugm-3,19.41110,R,ugm-3,1.887,R,ugm-3 (Ref.eq)
01-01-2021,15:00,5.225,R,ugm-3 (FIDAS),9.92913,R,ugm-3,14.44505,R,ugm-3,29.66950,R,ugm-3,2.665,R,ugm-3 (Ref.eq)
01-01-2021,16:00,7.475,R,ugm-3 (FIDAS),9.68890,R,ugm-3,14.50625,R,ugm-3,29.36236,R,ugm-3,4.198,R,ugm-3 (Ref.eq)
01-01-2021,17:00,11.350,R,ugm-3 (FIDAS),15.85457,R,ugm-3,31.03621,R,ugm-3,55.34621,R,ugm-3,7.925,R,ugm-3 (Ref.eq)
01-01-2021,18:00,12.700,R,ugm-3 (FIDAS),19.49792,R,ugm-3,33.00541,R,ugm-3,62.90180,R,ugm-3,8.302,R,ugm-3 (Ref.eq)
01-01-2021,19:00,7.575,R,ugm-3 (FIDAS),5.84537,R,ugm-3,9.03549,R,ugm-3,17.99827,R,ugm-3,4.788,R,ugm-3 (Ref.eq)
01-01-2021,20:00,3.800,R,ugm-3 (FIDAS),6.72618,R,ugm-3,13.88911,R,ugm-3,24.20245,R,ugm-3,2.359,R,ugm-3 (Ref.eq)
01-01-2021,21:00,5.375,R,ugm-3 (FIDAS),9.52876,R,ugm-3,19.85029,R,ugm-3,34.46085,R,ugm-3,3.962,R,ugm-3 (Ref.eq)
01-01-2021,22:00,4.700,R,ugm-3 (FIDAS),3.92361,R,ugm-3,9.95505,R,ugm-3,15.97116,R,ugm-3,3.679,R,ugm-3 (Ref.eq)
01-01-2021,23:00,14.000,R,ugm-3 (FIDAS),4.72434,R,ugm-3,12.47435,R,ugm-3,19.71824,R,ugm-3,10.637,R,ugm-3 (Ref.eq)
01-01-2021,24:00,5.975,R,ugm-3 (FIDAS),3.92361,R,ugm-3,6.14654,R,ugm-3,12.16265,R,ugm-3,4.222,R,ugm-3 (Ref.eq)
02-01-2021,01:00,5.400,R,ugm-3 (FIDAS),2.08465,R,ugm-3,9.58599,R,ugm-3,12.78242,R,ugm-3,3.774,R,ugm-3 (Ref.eq)
02-01-2021,02:00,4.000,R,ugm-3 (FIDAS),3.90204,R,ugm-3,5.81610,R,ugm-3,11.79915,R,ugm-3,2.783,R,ugm-3 (Ref.eq)
02-01-2021,03:00,2.750,R,ugm-3 (FIDAS),1.92430,R,ugm-3,5.03847,R,ugm-3,7.98901,R,ugm-3,1.863,R,ugm-3 (Ref.eq)
02-01-2021,04:00,2.350,R,ugm-3 (FIDAS),1.24277,R,ugm-3,4.05547,R,ugm-3,5.96103,R,ugm-3,1.179,R,ugm-3 (Ref.eq)
02-01-2021,05:00,1.400,R,ugm-3 (FIDAS),1.76394,R,ugm-3,4.91562,R,ugm-3,7.62029,R,ugm-3,0.755,R,ugm-3 (Ref.eq)
02-01-2021,06:00,1.125,R,ugm-3 (FIDAS),4.24949,R,ugm-3,2.76376,R,ugm-3,9.27954,R,ugm-3,0.401,R,ugm-3 (Ref.eq)
02-01-2021,07:00,0.625,R,ugm-3 (FIDAS),3.36752,R,ugm-3,6.20552,R,ugm-3,11.36898,R,ugm-3,0.354,R,ugm-3 (Ref.eq)
02-01-2021,08:00,1.075,R,ugm-3 (FIDAS),5.21163,R,ugm-3,10.01494,R,ugm-3,18.00600,R,ugm-3,0.472,R,ugm-3 (Ref.eq)
02-01-2021,09:00,1.025,R,ugm-3 (FIDAS),4.85083,R,ugm-3,8.60164,R,ugm-3,16.03947,R,ugm-3,0.472,R,ugm-3 (Ref.eq)
02-01-2021,10:00,1.575,R,ugm-3 (FIDAS),12.46783,R,ugm-3,17.07929,R,ugm-3,36.19636,R,ugm-3,0.660,R,ugm-3 (Ref.eq)
02-01-2021,11:00,2.675,R,ugm-3 (FIDAS),13.71060,R,ugm-3,21.68785,R,ugm-3,42.71048,R,ugm-3,1.250,R,ugm-3 (Ref.eq)
02-01-2021,12:00,3.950,R,ugm-3 (FIDAS),27.70183,R,ugm-3,35.26366,R,ugm-3,77.73921,R,ugm-3,1.958,R,ugm-3 (Ref.eq)
02-01-2021,13:00,4.875,R,ugm-3 (FIDAS),21.76859,R,ugm-3,20.45560,R,ugm-3,53.83364,R,ugm-3,2.830,R,ugm-3 (Ref.eq)
02-01-2021,14:00,4.225,R,ugm-3 (FIDAS),16.15606,R,ugm-3,23.16178,R,ugm-3,47.93406,R,ugm-3,2.217,R,ugm-3 (Ref.eq)
02-01-2021,15:00,7.450,R,ugm-3 (FIDAS),24.37441,R,ugm-3,39.87402,R,ugm-3,77.24758,R,ugm-3,5.354,R,ugm-3 (Ref.eq)
02-01-2021,16:00,6.925,R,ugm-3 (FIDAS),10.78407,R,ugm-3,19.16939,R,ugm-3,35.70473,R,ugm-3,5.354,R,ugm-3 (Ref.eq)
02-01-2021,17:00,9.800,R,ugm-3 (FIDAS),5.53235,R,ugm-3,14.56241,R,ugm-3,23.04522,R,ugm-3,7.170,R,ugm-3 (Ref.eq)
02-01-2021,18:00,10.100,R,ugm-3 (FIDAS),10.90434,R,ugm-3,29.92377,R,ugm-3,46.64353,R,ugm-3,7.028,R,ugm-3 (Ref.eq)
02-01-2021,19:00,7.075,R,ugm-3 (FIDAS),14.79302,R,ugm-3,29.67643,R,ugm-3,52.35874,R,ugm-3,3.726,R,ugm-3 (Ref.eq)
02-01-2021,20:00,7.800,R,ugm-3 (FIDAS),9.74175,R,ugm-3,21.68941,R,ugm-3,36.62654,R,ugm-3,5.259,R,ugm-3 (Ref.eq)
02-01-2021,21:00,8.275,R,ugm-3 (FIDAS),8.05799,R,ugm-3,16.15922,R,ugm-3,28.51462,R,ugm-3,5.660,R,ugm-3 (Ref.eq)
02-01-2021,22:00,7.525,R,ugm-3 (FIDAS),6.25396,R,ugm-3,15.42248,R,ugm-3,25.01175,R,ugm-3,5.542,R,ugm-3 (Ref.eq)
02-01-2021,23:00,7.425,R,ugm-3 (FIDAS),2.88644,R,ugm-3,9.03259,R,ugm-3,13.45841,R,ugm-3,5.283,R,ugm-3 (Ref.eq)
02-01-2021,24:00,19.100,R,ugm-3 (FIDAS),6.21387,R,ugm-3,29.98707,R,ugm-3,39.51487,R,ugm-3,15.943,R,ugm-3 (Ref.eq)
03-01-2021,01:00,15.275,R,ugm-3 (FIDAS),15.52164,R,ugm-3,45.96015,R,ugm-3,69.75966,R,ugm-3,13.255,R,ugm-3 (Ref.eq)
03-01-2021,02:00,8.775,R,ugm-3 (FIDAS),3.58603,R,ugm-3,16.47046,R,ugm-3,21.96896,R,ugm-3,6.981,R,ugm-3 (Ref.eq)
03-01-2021,03:00,5.450,R,ugm-3 (FIDAS),3.25152,R,ugm-3,11.42966,R,ugm-3,16.41524,R,ugm-3,3.844,R,ugm-3 (Ref.eq)
03-01-2021,04:00,5.225,R,ugm-3 (FIDAS),2.32825,R,ugm-3,13.58308,R,ugm-3,17.15301,R,ugm-3,3.561,R,ugm-3 (Ref.eq)
03-01-2021,05:00,3.675,R,ugm-3 (FIDAS),2.56910,R,ugm-3,12.04565,R,ugm-3,15.98488,R,ugm-3,2.571,R,ugm-3 (Ref.eq)
03-01-2021,06:00,3.325,R,ugm-3 (FIDAS),1.44512,R,ugm-3,5.83810,R,ugm-3,8.05392,R,ugm-3,1.816,R,ugm-3 (Ref.eq)
03-01-2021,07:00,3.725,R,ugm-3 (FIDAS),4.33535,R,ugm-3,15.30102,R,ugm-3,21.94847,R,ugm-3,2.028,R,ugm-3 (Ref.eq)
03-01-2021,08:00,3.575,R,ugm-3 (FIDAS),16.21744,R,ugm-3,32.00290,R,ugm-3,56.86929,R,ugm-3,1.698,R,ugm-3 (Ref.eq)
03-01-2021,09:00,5.225,R,ugm-3 (FIDAS),12.16308,R,ugm-3,39.01874,R,ugm-3,57.66853,R,ugm-3,2.264,R,ugm-3 (Ref.eq)
03-01-2021,10:00,6.200,R,ugm-3 (FIDAS),15.41459,R,ugm-3,32.12726,R,ugm-3,55.76264,R,ugm-3,2.547,R,ugm-3 (Ref.eq)
03-01-2021,11:00,8.875,R,ugm-3 (FIDAS),21.59649,R,ugm-3,24.55438,R,ugm-3,57.66853,R,ugm-3,3.679,R,ugm-3 (Ref.eq)
03-01-2021,12:00,7.150,R,ugm-3 (FIDAS),25.65085,R,ugm-3,27.25243,R,ugm-3,66.58318,R,ugm-3,4.222,R,ugm-3 (Ref.eq)
03-01-2021,13:00,16.075,R,ugm-3 (FIDAS),30.38762,R,ugm-3,25.39974,R,ugm-3,71.99344,R,ugm-3,12.241,R,ugm-3 (Ref.eq)
03-01-2021,14:00,6.050,R,ugm-3 (FIDAS),27.89881,R,ugm-3,21.16195,R,ugm-3,63.93952,R,ugm-3,3.939,R,ugm-3 (Ref.eq)
03-01-2021,15:00,8.700,R,ugm-3 (FIDAS),39.29918,R,ugm-3,26.85970,R,ugm-3,87.11760,R,ugm-3,6.486,R,ugm-3 (Ref.eq)
03-01-2021,16:00,10.675,R,ugm-3 (FIDAS),47.48819,R,ugm-3,38.64960,R,ugm-3,111.46381,R,ugm-3,8.137,R,ugm-3 (Ref.eq)
03-01-2021,17:00,23.775,R,ugm-3 (FIDAS),54.07150,R,ugm-3,44.29429,R,ugm-3,127.20277,R,ugm-3,20.142,R,ugm-3 (Ref.eq)
03-01-2021,18:00,35.175,R,ugm-3 (FIDAS),82.89358,R,ugm-3,49.34678,R,ugm-3,176.44850,R,ugm-3,31.368,R,ugm-3 (Ref.eq)
03-01-2021,19:00,26.650,R,ugm-3 (FIDAS),61.33723,R,ugm-3,39.11724,R,ugm-3,133.16636,R,ugm-3,23.892,R,ugm-3 (Ref.eq)
03-01-2021,20:00,38.125,R,ugm-3 (FIDAS),72.65733,R,ugm-3,38.97450,R,ugm-3,150.38084,R,ugm-3,34.198,R,ugm-3 (Ref.eq)
03-01-2021,21:00,32.950,R,ugm-3 (FIDAS),54.55321,R,ugm-3,33.53439,R,ugm-3,117.18147,R,ugm-3,29.977,R,ugm-3 (Ref.eq)
03-01-2021,22:00,35.425,R,ugm-3 (FIDAS),46.76563,R,ugm-3,28.32217,R,ugm-3,100.02847,R,ugm-3,31.887,R,ugm-3 (Ref.eq)
03-01-2021,23:00,21.675,R,ugm-3 (FIDAS),19.34853,R,ugm-3,26.40272,R,ugm-3,56.07004,R,ugm-3,19.458,R,ugm-3 (Ref.eq)
03-01-2021,24:00,15.825,R,ugm-3 (FIDAS),14.49132,R,ugm-3,22.84535,R,ugm-3,45.06507,R,ugm-3,14.340,R,ugm-3 (Ref.eq)
04-01-2021,01:00,6.875,R,ugm-3 (FIDAS),6.16321,R,ugm-3,13.26635,R,ugm-3,22.71647,R,ugm-3,5.849,R,ugm-3 (Ref.eq)
04-01-2021,02:00,5.825,R,ugm-3 (FIDAS),2.94762,R,ugm-3,15.40855,R,ugm-3,19.92817,R,ugm-3,4.929,R,ugm-3 (Ref.eq)
04-01-2021,03:00,7.025,R,ugm-3 (FIDAS),1.56760,R,ugm-3,10.26676,R,ugm-3,12.67038,R,ugm-3,5.212,R,ugm-3 (Ref.eq)
04-01-2021,04:00,7.500,R,ugm-3 (FIDAS),2.49208,R,ugm-3,5.71240,R,ugm-3,9.53354,R,ugm-3,4.859,R,ugm-3 (Ref.eq)
04-01-2021,05:00,6.850,R,ugm-3 (FIDAS),2.69306,R,ugm-3,5.52726,R,ugm-3,9.65655,R,ugm-3,4.717,R,ugm-3 (Ref.eq)
04-01-2021,06:00,5.850,R,ugm-3 (FIDAS),4.01949,R,ugm-3,8.35246,R,ugm-3,14.51558,R,ugm-3,4.316,R,ugm-3 (Ref.eq)
04-01-2021,07:00,5.025,R,ugm-3 (FIDAS),7.51644,R,ugm-3,10.18682,R,ugm-3,21.71187,R,ugm-3,3.585,R,ugm-3 (Ref.eq)
04-01-2021,08:00,5.050,R,ugm-3 (FIDAS),19.07916,R,ugm-3,17.73682,R,ugm-3,46.99112,R,ugm-3,3.467,R,ugm-3 (Ref.eq)
04-01-2021,09:00,5.100,R,ugm-3 (FIDAS),30.86965,R,ugm-3,32.13385,R,ugm-3,79.46666,R,ugm-3,3.679,R,ugm-3 (Ref.eq)
04-01-2021,10:00,7.100,R,ugm-3 (FIDAS),31.75394,R,ugm-3,27.76414,R,ugm-3,76.45283,R,ugm-3,4.670,R,ugm-3 (Ref.eq)
04-01-2021,11:00,7.225,R,ugm-3 (FIDAS),41.11934,R,ugm-3,38.37578,R,ugm-3,101.42455,R,ugm-3,4.670,R,ugm-3 (Ref.eq)
04-01-2021,12:00,6.825,R,ugm-3 (FIDAS),60.25209,R,ugm-3,45.51277,R,ugm-3,137.89802,R,ugm-3,4.788,R,ugm-3 (Ref.eq)
04-01-2021,13:00,7.975,R,ugm-3 (FIDAS),57.07669,R,ugm-3,51.67328,R,ugm-3,139.18966,R,ugm-3,6.085,R,ugm-3 (Ref.eq)
04-01-2021,14:00,7.300,R,ugm-3 (FIDAS),44.49571,R,ugm-3,32.46067,R,ugm-3,100.68647,R,ugm-3,5.613,R,ugm-3 (Ref.eq)
04-01-2021,15:00,11.550,R,ugm-3 (FIDAS),45.21921,R,ugm-3,34.48815,R,ugm-3,103.82331,R,ugm-3,10.024,R,ugm-3 (Ref.eq)
04-01-2021,16:00,16.350,R,ugm-3 (FIDAS),62.11445,R,ugm-3,43.10824,R,ugm-3,138.34907,R,ugm-3,14.080,R,ugm-3 (Ref.eq)
04-01-2021,17:00,15.000,R,ugm-3 (FIDAS),82.47984,R,ugm-3,54.54689,R,ugm-3,181.01422,R,ugm-3,12.854,R,ugm-3 (Ref.eq)
04-01-2021,18:00,16.425,R,ugm-3 (FIDAS),59.52858,R,ugm-3,44.77694,R,ugm-3,136.05282,R,ugm-3,14.009,R,ugm-3 (Ref.eq)
04-01-2021,19:00,19.200,R,ugm-3 (FIDAS),31.99511,R,ugm-3,38.28104,R,ugm-3,87.33951,R,ugm-3,16.344,R,ugm-3 (Ref.eq)
04-01-2021,20:00,15.875,R,ugm-3 (FIDAS),37.42141,R,ugm-3,33.95875,R,ugm-3,91.33745,R,ugm-3,13.892,R,ugm-3 (Ref.eq)
04-01-2021,21:00,9.800,R,ugm-3 (FIDAS),24.59925,R,ugm-3,24.83399,R,ugm-3,62.55231,R,ugm-3,8.113,R,ugm-3 (Ref.eq)
04-01-2021,22:00,14.525,R,ugm-3 (FIDAS),16.96223,R,ugm-3,23.68902,R,ugm-3,49.69741,R,ugm-3,12.665,R,ugm-3 (Ref.eq)
04-01-2021,23:00,11.650,R,ugm-3 (FIDAS),17.68574,R,ugm-3,25.22445,R,ugm-3,52.34220,R,ugm-3,10.142,R,ugm-3 (Ref.eq)
04-01-2021,24:00,17.100,R,ugm-3 (FIDAS),13.22411,R,ugm-3,22.83952,R,ugm-3,43.11620,R,ugm-3,15.425,R,ugm-3 (Ref.eq)
05-01-2021,01:00,9.650,R,ugm-3 (FIDAS),4.07842,R,ugm-3,14.42163,R,ugm-3,20.67512,R,ugm-3,8.420,R,ugm-3 (Ref.eq)
05-01-2021,02:00,9.200,R,ugm-3 (FIDAS),3.54178,R,ugm-3,12.70109,R,ugm-3,18.13175,R,ugm-3,7.830,R,ugm-3 (Ref.eq)
05-01-2021,03:00,5.325,R,ugm-3 (FIDAS),2.37461,R,ugm-3,6.08122,R,ugm-3,9.72223,R,ugm-3,4.269,R,ugm-3 (Ref.eq)
05-01-2021,04:00,4.275,R,ugm-3 (FIDAS),2.69659,R,ugm-3,4.17226,R,ugm-3,8.30697,R,ugm-3,3.491,R,ugm-3 (Ref.eq)
05-01-2021,05:00,3.975,R,ugm-3 (FIDAS),6.47985,R,ugm-3,6.73983,R,ugm-3,16.67547,R,ugm-3,3.090,R,ugm-3 (Ref.eq)
05-01-2021,06:00,3.525,R,ugm-3 (FIDAS),7.12381,R,ugm-3,11.96728,R,ugm-3,22.89031,R,ugm-3,2.736,R,ugm-3 (Ref.eq)
05-01-2021,07:00,3.725,R,ugm-3 (FIDAS),33.60670,R,ugm-3,21.01796,R,ugm-3,72.54751,R,ugm-3,2.783,R,ugm-3 (Ref.eq)
05-01-2021,08:00,4.925,R,ugm-3 (FIDAS),65.72424,R,ugm-3,42.22714,R,ugm-3,143.00289,R,ugm-3,3.774,R,ugm-3 (Ref.eq)
05-01-2021,09:00,6.900,R,ugm-3 (FIDAS),73.69325,R,ugm-3,45.94523,R,ugm-3,158.93996,R,ugm-3,4.292,R,ugm-3 (Ref.eq)
05-01-2021,10:00,9.050,R,ugm-3 (FIDAS),52.96576,R,ugm-3,36.31516,R,ugm-3,117.52820,R,ugm-3,6.745,R,ugm-3 (Ref.eq)
05-01-2021,11:00,10.200,R,ugm-3 (FIDAS),54.57567,R,ugm-3,35.44654,R,ugm-3,119.12806,R,ugm-3,7.877,R,ugm-3 (Ref.eq)
05-01-2021,12:00,9.650,R,ugm-3 (FIDAS),59.88834,R,ugm-3,28.10048,R,ugm-3,119.92799,R,ugm-3,7.241,R,ugm-3 (Ref.eq)
05-01-2021,13:00,7.650,R,ugm-3 (FIDAS),47.29086,R,ugm-3,26.92583,R,ugm-3,99.43747,R,ugm-3,5.991,R,ugm-3 (Ref.eq)
05-01-2021,14:00,6.850,R,ugm-3 (FIDAS),35.53858,R,ugm-3,22.60923,R,ugm-3,77.10096,R,ugm-3,5.590,R,ugm-3 (Ref.eq)
05-01-2021,15:00,9.875,R,ugm-3 (FIDAS),50.34967,R,ugm-3,36.20372,R,ugm-3,113.40548,R,ugm-3,6.038,R,ugm-3 (Ref.eq)
05-01-2021,16:00,12.925,R,ugm-3 (FIDAS),52.40230,R,ugm-3,41.11724,R,ugm-3,121.46631,R,ugm-3,10.283,R,ugm-3 (Ref.eq)
05-01-2021,17:00,17.100,R,ugm-3 (FIDAS),85.84801,R,ugm-3,51.79836,R,ugm-3,183.43013,R,ugm-3,14.505,R,ugm-3 (Ref.eq)
05-01-2021,18:00,13.050,R,ugm-3 (FIDAS),80.37434,R,ugm-3,49.42291,R,ugm-3,172.66184,R,ugm-3,10.708,R,ugm-3 (Ref.eq)
05-01-2021,19:00,17.525,R,ugm-3 (FIDAS),54.73666,R,ugm-3,44.61425,R,ugm-3,128.54262,R,ugm-3,15.118,R,ugm-3 (Ref.eq)
05-01-2021,20:00,14.725,R,ugm-3 (FIDAS),74.57869,R,ugm-3,53.38679,R,ugm-3,167.73919,R,ugm-3,12.571,R,ugm-3 (Ref.eq)
05-01-2021,21:00,17.825,R,ugm-3 (FIDAS),45.84195,R,ugm-3,41.88481,R,ugm-3,112.17482,R,ugm-3,15.826,R,ugm-3 (Ref.eq)
05-01-2021,22:00,25.600,R,ugm-3 (FIDAS),60.53230,R,ugm-3,43.17322,R,ugm-3,135.98812,R,ugm-3,23.113,R,ugm-3 (Ref.eq)
05-01-2021,23:00,19.850,R,ugm-3 (FIDAS),66.32795,R,ugm-3,40.56306,R,ugm-3,142.26450,R,ugm-3,17.877,R,ugm-3 (Ref.eq)
05-01-2021,24:00,10.125,R,ugm-3 (FIDAS),12.03402,R,ugm-3,22.59067,R,ugm-3,41.04257,R,ugm-3,8.726,R,ugm-3 (Ref.eq)
06-01-2021,01:00,7.050,R,ugm-3 (FIDAS),8.70485,R,ugm-3,21.94685,R,ugm-3,35.29410,R,ugm-3,6.109,R,ugm-3 (Ref.eq)
06-01-2021,02:00,3.375,R,ugm-3 (FIDAS),6.34057,R,ugm-3,14.73756,R,ugm-3,24.45963,R,ugm-3,2.877,R,ugm-3 (Ref.eq)
06-01-2021,03:00,2.650,R,ugm-3 (FIDAS),1.41051,R,ugm-3,6.94805,R,ugm-3,9.11080,R,ugm-3,2.075,R,ugm-3 (Ref.eq)
06-01-2021,04:00,1.600,R,ugm-3 (FIDAS),2.33741,R,ugm-3,7.80452,R,ugm-3,11.38850,R,ugm-3,1.344,R,ugm-3 (Ref.eq)
06-01-2021,05:00,1.550,R,ugm-3 (FIDAS),33.69099,R,ugm-3,28.30696,R,ugm-3,79.96576,R,ugm-3,1.132,R,ugm-3 (Ref.eq)
06-01-2021,06:00,1.500,R,ugm-3 (FIDAS),8.94665,R,ugm-3,15.58430,R,ugm-3,29.30231,R,ugm-3,1.038,R,ugm-3 (Ref.eq)
06-01-2021,07:00,2.600,R,ugm-3 (FIDAS),49.93198,R,ugm-3,36.70813,R,ugm-3,113.26943,R,ugm-3,1.675,R,ugm-3 (Ref.eq)
06-01-2021,08:00,7.025,R,ugm-3 (FIDAS),115.13775,R,ugm-3,61.56996,R,ugm-3,238.11205,R,ugm-3,5.283,R,ugm-3 (Ref.eq)
06-01-2021,09:00,6.950,R,ugm-3 (FIDAS),140.00299,R,ugm-3,63.27277,R,ugm-3,277.94103,R,ugm-3,5.283,R,ugm-3 (Ref.eq)
06-01-2021,10:00,8.275,R,ugm-3 (FIDAS),135.65057,R,ugm-3,59.78908,R,ugm-3,267.78371,R,ugm-3,5.354,R,ugm-3 (Ref.eq)
06-01-2021,11:00,10.025,R,ugm-3 (FIDAS),26.47725,R,ugm-3,21.70031,R,ugm-3,62.29819,R,ugm-3,8.703,R,ugm-3 (Ref.eq)
06-01-2021,12:00,3.925,R,ugm-3 (FIDAS),22.52783,R,ugm-3,20.86134,R,ugm-3,55.40353,R,ugm-3,2.830,R,ugm-3 (Ref.eq)
06-01-2021,13:00,4.675,R,ugm-3 (FIDAS),27.76686,R,ugm-3,10.24278,R,ugm-3,52.81803,R,ugm-3,3.632,R,ugm-3 (Ref.eq)
06-01-2021,14:00,6.200,R,ugm-3 (FIDAS),27.92806,R,ugm-3,19.35265,R,ugm-3,62.17507,R,ugm-3,4.151,R,ugm-3 (Ref.eq)
06-01-2021,15:00,4.875,R,ugm-3 (FIDAS),25.87275,R,ugm-3,17.08685,R,ugm-3,56.75783,R,ugm-3,3.184,R,ugm-3 (Ref.eq)
06-01-2021,16:00,5.725,R,ugm-3 (FIDAS),24.18014,R,ugm-3,21.09801,R,ugm-3,58.17370,R,ugm-3,4.646,R,ugm-3 (Ref.eq)
06-01-2021,17:00,5.925,R,ugm-3 (FIDAS),25.30854,R,ugm-3,25.03128,R,ugm-3,63.83718,R,ugm-3,4.599,R,ugm-3 (Ref.eq)
06-01-2021,18:00,4.125,R,ugm-3 (FIDAS),16.28129,R,ugm-3,14.06441,R,ugm-3,39.02871,R,ugm-3,3.373,R,ugm-3 (Ref.eq)
06-01-2021,19:00,4.325,R,ugm-3 (FIDAS),11.04226,R,ugm-3,12.98667,R,ugm-3,29.91791,R,ugm-3,3.538,R,ugm-3 (Ref.eq)
06-01-2021,20:00,3.250,R,ugm-3 (FIDAS),8.06005,R,ugm-3,6.84799,R,ugm-3,19.20656,R,ugm-3,2.311,R,ugm-3 (Ref.eq)
06-01-2021,21:00,4.625,R,ugm-3 (FIDAS),6.04503,R,ugm-3,13.26185,R,ugm-3,22.53077,R,ugm-3,3.420,R,ugm-3 (Ref.eq)
06-01-2021,22:00,2.775,R,ugm-3 (FIDAS),3.46582,R,ugm-3,6.25900,R,ugm-3,11.57318,R,ugm-3,2.146,R,ugm-3 (Ref.eq)
06-01-2021,23:00,1.750,R,ugm-3 (FIDAS),2.70012,R,ugm-3,3.92417,R,ugm-3,8.06429,R,ugm-3,1.274,R,ugm-3 (Ref.eq)
06-01-2021,24:00,1.650,R,ugm-3 (FIDAS),2.86132,R,ugm-3,3.80012,R,ugm-3,8.18741,R,ugm-3,1.368,R,ugm-3 (Ref.eq)
07-01-2021,01:00,1.825,R,ugm-3 (FIDAS),1.45271,R,ugm-3,2.12462,R,ugm-3,4.35207,R,ugm-3,1.533,R,ugm-3 (Ref.eq)
07-01-2021,02:00,1.375,R,ugm-3 (FIDAS),1.56031,R,ugm-3,1.95962,R,ugm-3,4.35207,R,ugm-3,1.109,R,ugm-3 (Ref.eq)
07-01-2021,03:00,0.875,R,ugm-3 (FIDAS),1.12988,R,ugm-3,1.59318,R,ugm-3,3.32564,R,ugm-3,0.684,R,ugm-3 (Ref.eq)
07-01-2021,04:00,0.775,R,ugm-3 (FIDAS),2.46153,R,ugm-3,1.89161,R,ugm-3,5.66590,R,ugm-3,0.590,R,ugm-3 (Ref.eq)
07-01-2021,05:00,0.850,R,ugm-3 (FIDAS),2.62294,R,ugm-3,3.49169,R,ugm-3,7.51347,R,ugm-3,0.542,R,ugm-3 (Ref.eq)
07-01-2021,06:00,1.300,R,ugm-3 (FIDAS),4.27741,R,ugm-3,7.91408,R,ugm-3,14.47268,R,ugm-3,0.684,R,ugm-3 (Ref.eq)
07-01-2021,07:00,2.375,R,ugm-3 (FIDAS),21.46775,R,ugm-3,21.21721,R,ugm-3,54.13397,R,ugm-3,1.109,R,ugm-3 (Ref.eq)
07-01-2021,08:00,4.925,R,ugm-3 (FIDAS),67.63148,R,ugm-3,52.42000,R,ugm-3,156.12016,R,ugm-3,2.524,R,ugm-3 (Ref.eq)
07-01-2021,09:00,7.750,R,ugm-3 (FIDAS),75.41960,R,ugm-3,57.29133,R,ugm-3,172.93310,R,ugm-3,4.741,R,ugm-3 (Ref.eq)
07-01-2021,10:00,6.150,R,ugm-3 (FIDAS),41.72491,R,ugm-3,39.48694,R,ugm-3,103.46425,R,ugm-3,3.561,R,ugm-3 (Ref.eq)
07-01-2021,11:00,11.750,R,ugm-3 (FIDAS),32.96833,R,ugm-3,34.80727,R,ugm-3,85.35800,R,ugm-3,7.901,R,ugm-3 (Ref.eq)
07-01-2021,12:00,6.500,R,ugm-3 (FIDAS),33.45257,R,ugm-3,26.98241,R,ugm-3,78.27563,R,ugm-3,3.609,R,ugm-3 (Ref.eq)
07-01-2021,13:00,6.975,R,ugm-3 (FIDAS),36.31762,R,ugm-3,28.31687,R,ugm-3,84.00311,R,ugm-3,4.434,R,ugm-3 (Ref.eq)
07-01-2021,14:00,7.875,R,ugm-3 (FIDAS),35.55092,R,ugm-3,33.80348,R,ugm-3,88.31413,R,ugm-3,5.000,R,ugm-3 (Ref.eq)
07-01-2021,15:00,10.175,R,ugm-3 (FIDAS),46.56726,R,ugm-3,49.61408,R,ugm-3,121.01622,R,ugm-3,6.486,R,ugm-3 (Ref.eq)
07-01-2021,16:00,11.625,R,ugm-3 (FIDAS),41.32138,R,ugm-3,49.87730,R,ugm-3,113.23587,R,ugm-3,7.028,R,ugm-3 (Ref.eq)
07-01-2021,17:00,3.900,R,ugm-3 (FIDAS),6.33541,R,ugm-3,16.27508,R,ugm-3,25.98923,R,ugm-3,2.783,R,ugm-3 (Ref.eq)
07-01-2021,18:00,14.900,R,ugm-3 (FIDAS),29.25586,R,ugm-3,50.10704,R,ugm-3,94.96540,R,ugm-3,11.415,R,ugm-3 (Ref.eq)
07-01-2021,19:00,17.350,R,ugm-3 (FIDAS),35.10704,R,ugm-3,52.89826,R,ugm-3,106.72830,R,ugm-3,11.321,R,ugm-3 (Ref.eq)
07-01-2021,20:00,10.925,R,ugm-3 (FIDAS),8.23199,R,ugm-3,18.04754,R,ugm-3,30.66976,R,ugm-3,6.321,R,ugm-3 (Ref.eq)
07-01-2021,21:00,6.050,R,ugm-3 (FIDAS),4.11600,R,ugm-3,11.61038,R,ugm-3,17.92149,R,ugm-3,4.222,R,ugm-3 (Ref.eq)
07-01-2021,22:00,7.650,R,ugm-3 (FIDAS),3.75282,R,ugm-3,13.83006,R,ugm-3,19.58430,R,ugm-3,6.132,R,ugm-3 (Ref.eq)
07-01-2021,23:00,6.650,R,ugm-3 (FIDAS),5.12482,R,ugm-3,16.28371,R,ugm-3,24.14166,R,ugm-3,4.316,R,ugm-3 (Ref.eq)
07-01-2021,24:00,6.950,R,ugm-3 (FIDAS),1.21059,R,ugm-3,6.45788,R,ugm-3,8.31409,R,ugm-3,4.057,R,ugm-3 (Ref.eq)
08-01-2021,01:00,6.775,R,ugm-3 (FIDAS),1.23911,R,ugm-3,7.05438,R,ugm-3,8.95431,R,ugm-3,3.325,R,ugm-3 (Ref.eq)
08-01-2021,02:00,4.600,R,ugm-3 (FIDAS),2.31659,R,ugm-3,5.07366,R,ugm-3,8.62572,R,ugm-3,2.217,R,ugm-3 (Ref.eq)
08-01-2021,03:00,5.275,R,ugm-3 (FIDAS),1.57582,R,ugm-3,2.26631,R,ugm-3,4.68253,R,ugm-3,2.241,R,ugm-3 (Ref.eq)
08-01-2021,04:00,4.325,R,ugm-3 (FIDAS),1.45460,R,ugm-3,1.46638,R,ugm-3,3.69673,R,ugm-3,1.981,R,ugm-3 (Ref.eq)
08-01-2021,05:00,3.750,R,ugm-3 (FIDAS),2.86880,R,ugm-3,6.99951,R,ugm-3,11.39827,R,ugm-3,1.816,R,ugm-3 (Ref.eq)
08-01-2021,06:00,3.350,R,ugm-3 (FIDAS),10.38424,R,ugm-3,16.30093,R,ugm-3,32.22321,R,ugm-3,1.627,R,ugm-3 (Ref.eq)
08-01-2021,07:00,3.325,R,ugm-3 (FIDAS),18.86942,R,ugm-3,20.11065,R,ugm-3,49.04335,R,ugm-3,1.722,R,ugm-3 (Ref.eq)
08-01-2021,08:00,4.150,R,ugm-3 (FIDAS),50.62822,R,ugm-3,64.14094,R,ugm-3,141.76979,R,ugm-3,1.910,R,ugm-3 (Ref.eq)
08-01-2021,09:00,5.400,R,ugm-3 (FIDAS),73.82103,R,ugm-3,67.57967,R,ugm-3,180.77034,R,ugm-3,2.712,R,ugm-3 (Ref.eq)
08-01-2021,10:00,8.525,R,ugm-3 (FIDAS),113.86298,R,ugm-3,80.67208,R,ugm-3,255.25955,R,ugm-3,5.542,R,ugm-3 (Ref.eq)
08-01-2021,11:00,11.525,R,ugm-3 (FIDAS),73.57860,R,ugm-3,57.53892,R,ugm-3,170.35787,R,ugm-3,8.066,R,ugm-3 (Ref.eq)
08-01-2021,12:00,5.325,R,ugm-3 (FIDAS),38.10248,R,ugm-3,38.18502,R,ugm-3,96.60801,R,ugm-3,3.278,R,ugm-3 (Ref.eq)
08-01-2021,13:00,5.750,R,ugm-3 (FIDAS),27.71824,R,ugm-3,26.56662,R,ugm-3,69.06733,R,ugm-3,3.420,R,ugm-3 (Ref.eq)
08-01-2021,14:00,9.750,R,ugm-3 (FIDAS),29.61730,R,ugm-3,22.97703,R,ugm-3,68.38960,R,ugm-3,6.934,R,ugm-3 (Ref.eq)
08-01-2021,15:00,12.125,R,ugm-3 (FIDAS),26.30405,R,ugm-3,27.37956,R,ugm-3,67.71186,R,ugm-3,8.750,R,ugm-3 (Ref.eq)
08-01-2021,16:00,6.050,R,ugm-3 (FIDAS),36.93072,R,ugm-3,39.30396,R,ugm-3,95.93027,R,ugm-3,3.774,R,ugm-3 (Ref.eq)
08-01-2021,17:00,7.325,R,ugm-3 (FIDAS),31.11231,R,ugm-3,37.32002,R,ugm-3,85.02490,R,ugm-3,5.236,R,ugm-3 (Ref.eq)
08-01-2021,18:00,8.400,R,ugm-3 (FIDAS),36.52666,R,ugm-3,35.11775,R,ugm-3,91.12452,R,ugm-3,5.873,R,ugm-3 (Ref.eq)
08-01-2021,19:00,5.750,R,ugm-3 (FIDAS),18.30374,R,ugm-3,20.85479,R,ugm-3,48.92013,R,ugm-3,4.033,R,ugm-3 (Ref.eq)
08-01-2021,20:00,8.400,R,ugm-3 (FIDAS),15.07129,R,ugm-3,19.40346,R,ugm-3,42.51245,R,ugm-3,6.250,R,ugm-3 (Ref.eq)
08-01-2021,21:00,10.275,R,ugm-3 (FIDAS),10.58627,R,ugm-3,15.49826,R,ugm-3,31.73031,R,ugm-3,8.113,R,ugm-3 (Ref.eq)
08-01-2021,22:00,6.050,R,ugm-3 (FIDAS),7.87909,R,ugm-3,15.76763,R,ugm-3,27.84874,R,ugm-3,4.198,R,ugm-3 (Ref.eq)
08-01-2021,23:00,4.675,R,ugm-3 (FIDAS),2.94961,R,ugm-3,3.24047,R,ugm-3,7.76314,R,ugm-3,3.373,R,ugm-3 (Ref.eq)
08-01-2021,24:00,3.525,R,ugm-3 (FIDAS),2.06069,R,ugm-3,2.75510,R,ugm-3,5.91478,R,ugm-3,2.123,R,ugm-3 (Ref.eq)
09-01-2021,01:00,3.425,R,ugm-3 (FIDAS),1.83411,R,ugm-3,1.79009,R,ugm-3,4.60235,R,ugm-3,2.075,R,ugm-3 (Ref.eq)
09-01-2021,02:00,2.975,R,ugm-3 (FIDAS),1.24072,R,ugm-3,1.30280,R,ugm-3,3.20521,R,ugm-3,1.698,R,ugm-3 (Ref.eq)
09-01-2021,03:00,2.825,R,ugm-3 (FIDAS),1.25421,R,ugm-3,1.22048,R,ugm-3,3.14357,R,ugm-3,1.604,R,ugm-3 (Ref.eq)
09-01-2021,04:00,2.550,R,ugm-3 (FIDAS),1.37558,R,ugm-3,0.35635,R,ugm-3,2.46555,R,ugm-3,1.297,R,ugm-3 (Ref.eq)
09-01-2021,05:00,2.475,R,ugm-3 (FIDAS),1.37558,R,ugm-3,1.03437,R,ugm-3,3.14357,R,ugm-3,1.226,R,ugm-3 (Ref.eq)
09-01-2021,06:00,2.650,R,ugm-3 (FIDAS),1.45650,R,ugm-3,0.97194,R,ugm-3,3.20521,R,ugm-3,1.321,R,ugm-3 (Ref.eq)
09-01-2021,07:00,2.325,R,ugm-3 (FIDAS),1.94200,R,ugm-3,2.63143,R,ugm-3,5.60912,R,ugm-3,1.392,R,ugm-3 (Ref.eq)
09-01-2021,08:00,2.875,R,ugm-3 (FIDAS),3.07483,R,ugm-3,2.37377,R,ugm-3,7.08844,R,ugm-3,1.722,R,ugm-3 (Ref.eq)
09-01-2021,09:00,2.475,R,ugm-3 (FIDAS),3.56033,R,ugm-3,4.09489,R,ugm-3,9.55399,R,ugm-3,1.557,R,ugm-3 (Ref.eq)
09-01-2021,10:00,1.625,R,ugm-3 (FIDAS),4.69316,R,ugm-3,3.03593,R,ugm-3,10.23202,R,ugm-3,1.250,R,ugm-3 (Ref.eq)
09-01-2021,11:00,2.000,R,ugm-3 (FIDAS),5.05729,R,ugm-3,5.37463,R,ugm-3,13.12903,R,ugm-3,1.250,R,ugm-3 (Ref.eq)
09-01-2021,12:00,1.700,R,ugm-3 (FIDAS),7.48478,R,ugm-3,7.13836,R,ugm-3,18.61487,R,ugm-3,1.344,R,ugm-3 (Ref.eq)
09-01-2021,13:00,1.750,R,ugm-3 (FIDAS),9.66953,R,ugm-3,11.80149,R,ugm-3,26.62789,R,ugm-3,1.321,R,ugm-3 (Ref.eq)
09-01-2021,14:00,2.275,R,ugm-3 (FIDAS),9.06266,R,ugm-3,6.99962,R,ugm-3,20.89550,R,ugm-3,1.981,R,ugm-3 (Ref.eq)
09-01-2021,15:00,2.850,R,ugm-3 (FIDAS),12.01611,R,ugm-3,8.26508,R,ugm-3,26.68953,R,ugm-3,2.406,R,ugm-3 (Ref.eq)
09-01-2021,16:00,2.250,R,ugm-3 (FIDAS),9.87182,R,ugm-3,6.62186,R,ugm-3,21.75844,R,ugm-3,1.840,R,ugm-3 (Ref.eq)
09-01-2021,17:00,3.675,R,ugm-3 (FIDAS),10.80236,R,ugm-3,7.78387,R,ugm-3,24.34726,R,ugm-3,2.877,R,ugm-3 (Ref.eq)